User: anonymous   Login
Location: Unspecified
(0.0000°N, 0.0000°E)
Time: 09:08:32
(UTC+02:00)
Language:

YAOGAN 3 - Orbit

View from above orbital plane
View from above orbital plane
View from above satellite
View from above satellite

Ground track
Ground track

The orbit data is extracted from the following two-line orbital elements,

1 32289U 07055A   16268.81424209 -.00000180  00000-0 -16594-4 0  9994
2 32289  97.9918 265.5771 0001690  86.5171 273.6248 14.80736102479460
Epoch (UTC): 24 September 2016 19:32:30
Eccentricity: 0.0001690
inclination: 97.9918°
perigee height: 626 km
apogee height: 628 km
right ascension of ascending node: 265.5771°
argument of perigee: 86.5171°
revolutions per day: 14.80736102
mean anomaly at epoch: 273.6248°
orbit number at epoch: 47946

The dashed part of the orbit path shows where the satellite is in the earth's shadow,  

DLR